• en Suisse
  • Liste des pays
  • À 7 jours
  • Température de l'eau
  • Carte satellitaire
  • Carte météo
  • Widgets météo
  • user-avatar
    Se connecter

    Météo par heure à Perevolockiy

    Ce jour, 19 Août, Dimanche

    Heure Température Précipitation Vent Pression Humidité
    00:00 +13°C° 0 mm 5 m/s 745 mmHg 69%
    01:00 +13°C° 0 mm 5 m/s 745 mmHg 71%
    02:00 +12°C° 0 mm 5 m/s 745 mmHg 73%
    03:00 +12°C° 0 mm 5 m/s 746 mmHg 76%
    04:00 +11°C° 0 mm 4 m/s 746 mmHg 79%
    05:00 +11°C° 0 mm 4 m/s 746 mmHg 78%
    06:00 +12°C° 0 mm 4 m/s 746 mmHg 77%
    07:00 +12°C° 0 mm 5 m/s 746 mmHg 75%
    08:00 +14°C° 0 mm 5 m/s 746 mmHg 67%
    09:00 +16°C° 0 mm 5 m/s 746 mmHg 60%
    10:00 +19°C° 0 mm 5 m/s 746 mmHg 52%
    11:00 +20°C° 0 mm 5 m/s 746 mmHg 48%
    12:00 +21°C° 0 mm 5 m/s 746 mmHg 44%
    13:00 +22°C° 0 mm 5 m/s 746 mmHg 40%
    14:00 +22°C° 0 mm 5 m/s 746 mmHg 41%
    15:00 +21°C° 0 mm 5 m/s 746 mmHg 41%
    16:00 +21°C° 0 mm 5 m/s 746 mmHg 41%
    17:00 +20°C° 0 mm 4 m/s 746 mmHg 46%
    18:00 +20°C° 0 mm 4 m/s 746 mmHg 50%
    19:00 +19°C° 0 mm 4 m/s 746 mmHg 54%
    20:00 +18°C° 0 mm 3 m/s 746 mmHg 60%
    21:00 +16°C° 0 mm 3 m/s 746 mmHg 66%
    22:00 +14°C° 0 mm 3 m/s 746 mmHg 71%
    23:00 +13°C° 0 mm 3 m/s 746 mmHg 74%

    Demain, 20 Août, Lundi

    Heure Température Précipitation Vent Pression Humidité
    00:00 +13°C° 0 mm 3 m/s 746 mmHg 77%
    01:00 +12°C° 0 mm 3 m/s 746 mmHg 80%
    02:00 +12°C° 0 mm 3 m/s 746 mmHg 81%
    03:00 +11°C° 0 mm 3 m/s 746 mmHg 83%
    04:00 +11°C° 0 mm 3 m/s 746 mmHg 84%
    05:00 +11°C° 0 mm 3 m/s 747 mmHg 81%
    06:00 +12°C° 0 mm 3 m/s 747 mmHg 78%
    07:00 +12°C° 0 mm 3 m/s 747 mmHg 75%
    08:00 +14°C° 0 mm 3 m/s 747 mmHg 67%
    09:00 +17°C° 0 mm 3 m/s 747 mmHg 60%
    10:00 +18°C° 0 mm 3 m/s 747 mmHg 52%
    11:00 +19°C° 0 mm 3 m/s 747 mmHg 48%
    12:00 +20°C° 0 mm 3 m/s 747 mmHg 44%
    13:00 +21°C° 0 mm 3 m/s 747 mmHg 40%
    14:00 +22°C° 0 mm 4 m/s 747 mmHg 39%
    15:00 +22°C° 0 mm 4 m/s 746 mmHg 38%
    16:00 +23°C° 0 mm 4 m/s 746 mmHg 37%
    17:00 +22°C° 0 mm 4 m/s 746 mmHg 41%
    18:00 +20°C° 0 mm 3 m/s 746 mmHg 46%
    19:00 +19°C° 0 mm 2 m/s 746 mmHg 50%
    20:00 +18°C° 0 mm 2 m/s 746 mmHg 54%
    21:00 +17°C° 0 mm 2 m/s 746 mmHg 57%
    22:00 +16°C° 0 mm 1 m/s 746 mmHg 60%
    23:00 +16°C° 0 mm 1 m/s 746 mmHg 61%

    Après-demain, 21 Août, Mardi

    Heure Température Précipitation Vent Pression Humidité
    00:00 +15°C° 0 mm 1 m/s 746 mmHg 63%
    01:00 +15°C° 0 mm 1 m/s 746 mmHg 65%
    02:00 +15°C° 0 mm 1 m/s 746 mmHg 66%
    03:00 +14°C° 0 mm 1 m/s 746 mmHg 66%
    04:00 +14°C° 0 mm 1 m/s 746 mmHg 67%
    05:00 +15°C° 0 mm 2 m/s 746 mmHg 64%
    06:00 +16°C° 0 mm 2 m/s 746 mmHg 62%
    07:00 +16°C° 0 mm 2 m/s 746 mmHg 60%
    08:00 +19°C° 0 mm 3 m/s 746 mmHg 55%
    09:00 +21°C° 0 mm 4 m/s 746 mmHg 50%
    10:00 +23°C° 0 mm 5 m/s 746 mmHg 46%
    11:00 +25°C° 0 mm 5 m/s 746 mmHg 44%
    12:00 +26°C° 0 mm 5 m/s 745 mmHg 43%
    13:00 +27°C° 0 mm 5 m/s 745 mmHg 41%
    14:00 +28°C° 0 mm 6 m/s 745 mmHg 40%
    15:00 +28°C° 0 mm 6 m/s 744 mmHg 40%
    16:00 +28°C° 0 mm 6 m/s 744 mmHg 39%
    17:00 +27°C° 0 mm 5 m/s 744 mmHg 42%
    18:00 +26°C° 0 mm 4 m/s 744 mmHg 46%
    19:00 +25°C° 0 mm 3 m/s 743 mmHg 49%
    20:00 +24°C° 0 mm 3 m/s 743 mmHg 51%
    21:00 +21°C° 0 mm 3 m/s 743 mmHg 52%
    22:00 +20°C° 0 mm 3 m/s 743 mmHg 53%
    23:00 +20°C° 0 mm 3 m/s 743 mmHg 52%

    22 Août, Mercredi

    Heure Température Précipitation Vent Pression Humidité
    00:00 +19°C° 0 mm 3 m/s 743 mmHg 52%
    01:00 +19°C° 0 mm 3 m/s 743 mmHg 52%
    02:00 +18°C° 0 mm 3 m/s 743 mmHg 52%
    03:00 +18°C° 0 mm 3 m/s 743 mmHg 52%
    04:00 +18°C° 0 mm 3 m/s 742 mmHg 53%
    05:00 +18°C° 0 mm 3 m/s 742 mmHg 52%
    06:00 +19°C° 0 mm 3 m/s 742 mmHg 52%
    07:00 +19°C° 0 mm 3 m/s 742 mmHg 52%
    08:00 +21°C° 0 mm 4 m/s 742 mmHg 45%
    09:00 +25°C° 0 mm 5 m/s 742 mmHg 38%
    10:00 +27°C° 0 mm 6 m/s 742 mmHg 31%
    11:00 +28°C° 0 mm 6 m/s 742 mmHg 29%
    12:00 +29°C° 0 mm 7 m/s 741 mmHg 27%
    13:00 +30°C° 0 mm 7 m/s 741 mmHg 25%
    14:00 +30°C° 0 mm 7 m/s 741 mmHg 25%
    15:00 +30°C° 0 mm 7 m/s 740 mmHg 24%
    16:00 +31°C° 0 mm 8 m/s 740 mmHg 24%
    17:00 +29°C° 0 mm 7 m/s 740 mmHg 29%
    18:00 +27°C° 0 mm 6 m/s 740 mmHg 34%
    19:00 +26°C° 0 mm 5 m/s 740 mmHg 38%
    20:00 +23°C° 0 mm 5 m/s 740 mmHg 49%
    21:00 +21°C° 0 mm 4 m/s 740 mmHg 60%
    22:00 +20°C° 0 mm 4 m/s 741 mmHg 70%
    23:00 +19°C° 0 mm 4 m/s 741 mmHg 74%

    23 Août, Jeudi

    Heure Température Précipitation Vent Pression Humidité
    00:00 +18°C° 0 mm 4 m/s 741 mmHg 79%
    01:00 +17°C° 0 mm 3 m/s 741 mmHg 83%
    02:00 +16°C° 0 mm 3 m/s 741 mmHg 86%
    03:00 +14°C° 0 mm 3 m/s 742 mmHg 89%
    04:00 +14°C° 0 mm 3 m/s 742 mmHg 92%
    05:00 +14°C° 0 mm 3 m/s 742 mmHg 87%
    06:00 +14°C° 0 mm 4 m/s 743 mmHg 83%
    07:00 +14°C° 0 mm 4 m/s 743 mmHg 78%
    08:00 +15°C° 0 mm 5 m/s 744 mmHg 71%
    09:00 +17°C° 0 mm 5 m/s 744 mmHg 64%
    10:00 +19°C° 0 mm 5 m/s 744 mmHg 57%
    11:00 +20°C° 0 mm 6 m/s 744 mmHg 54%
    12:00 +21°C° 0 mm 6 m/s 744 mmHg 51%
    13:00 +21°C° 0 mm 6 m/s 745 mmHg 47%
    14:00 +21°C° 0 mm 6 m/s 745 mmHg 46%
    15:00 +22°C° 0 mm 6 m/s 745 mmHg 45%
    16:00 +22°C° 0 mm 6 m/s 745 mmHg 43%
    17:00 +21°C° 0 mm 5 m/s 746 mmHg 47%
    18:00 +19°C° 0 mm 5 m/s 746 mmHg 50%
    19:00 +18°C° 0 mm 4 m/s 746 mmHg 54%
    20:00 +17°C° 0 mm 4 m/s 747 mmHg 57%
    21:00 +16°C° 0 mm 3 m/s 747 mmHg 61%
    22:00 +14°C° 0 mm 3 m/s 747 mmHg 65%
    23:00 +13°C° 0 mm 3 m/s 748 mmHg 68%

    24 Août, Vendredi

    Heure Température Précipitation Vent Pression Humidité
    00:00 +12°C° 0 mm 3 m/s 748 mmHg 70%
    01:00 +11°C° 0 mm 3 m/s 748 mmHg 73%
    02:00 +12°C° 0 mm 2 m/s 748 mmHg 74%
    03:00 +10°C° 0 mm 2 m/s 748 mmHg 76%
    04:00 +10°C° 0 mm 2 m/s 749 mmHg 78%
    05:00 +12°C° 0 mm 2 m/s 749 mmHg 75%
    06:00 +12°C° 0 mm 2 m/s 749 mmHg 73%
    07:00 +12°C° 0 mm 3 m/s 749 mmHg 70%
    08:00 +13°C° 0 mm 3 m/s 749 mmHg 63%
    09:00 +16°C° 0 mm 3 m/s 749 mmHg 55%
    10:00 +18°C° 0 mm 4 m/s 749 mmHg 47%
    11:00 +19°C° 0 mm 4 m/s 749 mmHg 44%
    12:00 +20°C° 0 mm 5 m/s 748 mmHg 41%
    13:00 +22°C° 0 mm 5 m/s 748 mmHg 38%
    14:00 +22°C° 0 mm 5 m/s 748 mmHg 38%
    15:00 +22°C° 0 mm 6 m/s 748 mmHg 38%
    16:00 +23°C° 0 mm 6 m/s 747 mmHg 38%
    17:00 +22°C° 0 mm 5 m/s 747 mmHg 42%
    18:00 +21°C° 0 mm 4 m/s 747 mmHg 47%
    19:00 +20°C° 0 mm 3 m/s 747 mmHg 51%
    20:00 +19°C° 0 mm 3 m/s 747 mmHg 54%
    21:00 +18°C° 0 mm 3 m/s 747 mmHg 57%
    22:00 +17°C° 0 mm 3 m/s 747 mmHg 61%
    23:00 +16°C° 0 mm 3 m/s 747 mmHg 63%
    Voir plus